Regional Weather Roundup
Issued by NWS Upton, NY

Current Version | Previous Version | Text Only | Print | Product List | Glossary On
Versions: 1 2 3 4 5 6 7 8 9 10 11 12 13 14 15 16 17 18 19 20 21 22 23 24 25 26 27
000 ASUS41 KOKX 100108 RWROKX REGIONAL WEATHER ROUNDUP NATIONAL WEATHER SERVICE NEW YORK NY 800 PM EST FRI DEC 09 2016 NOTE: "FAIR" INDICATES FEW OR NO CLOUDS BELOW 12,000 FEET WITH NO SIGNIFICANT WEATHER AND/OR OBSTRUCTIONS TO VISIBILITY. NYZ071-072-176-178-NJZ106-104-100200- NEW YORK CITY METRO AREA CITY SKY/WX TMP DP RH WIND PRES REMARKS Central Park CLEAR 32 12 43 NW12G22 30.28R WCI 23 Wall St Helipt PTCLDY 34 14 43 CALM 30.28R Bronx Bot Gard NOT AVBL LaGuardia APRT PTCLDY 34 15 46 NW22G35 30.26R WCI 22 Kennedy INTL PTCLDY 33 11 39 NW20 30.27R WCI 21 Breezy Point N/A 32 N/A N/A NW16G31 N/A WCI 21 Newark/Liberty PTCLDY 32 12 43 NW17G24 30.28R WCI 21 Teterboro CLEAR 32 10 40 NW13G22 30.26R WCI 22 $$ NYZ177-179-078>081-100200- LONG ISLAND NEW YORK CITY SKY/WX TMP DP RH WIND PRES REMARKS Jones Beach N/A 32 N/A N/A NW23G31 N/A WCI 19 Matinecock PT NOT AVBL Farmingdale CLEAR 31 10 41 NW17G30 30.25R WCI 19 MacArthur/ISP PTCLDY 30 13 49 NW12G22 30.23R WCI 20 Shirley CLEAR 31 13 47 NW16 30.23R WCI 20 Westhampton NOT AVBL Southampton NOT AVBL Bridgehampton NOT AVBL East Hampton N/A 31 14 50 NW12G18 30.19R WCI 21 Montauk N/A 32 16 51 NW16G31 30.20R WCI 21 $$ NYZ052-065-067-100200- HUDSON VALLEY CITY SKY/WX TMP DP RH WIND PRES REMARKS White Plains CLEAR 29 11 47 NW20G28 30.22R WCI 16 Newburgh PTCLDY 27 16 63 NW12G18 30.25R WCI 16 Montgomery PTCLDY 27 11 51 W7 30.24R WCI 19 Poughkeepsie PTCLDY 27 10 49 W7 30.24R WCI 19 Albany PTCLDY 24 14 65 W9 30.23R WCI 14 $$ NJZ001-105-106-008-010-013-015-019>022-104-100200- NEW JERSEY CITY SKY/WX TMP DP RH WIND PRES REMARKS Newark/Liberty PTCLDY 32 12 43 NW17G24 30.28R WCI 21 Teterboro CLEAR 32 10 40 NW13G22 30.26R WCI 22 Caldwell PTCLDY 31 10 41 NW10 30.28R WCI 22 Somerville CLEAR 31 14 49 NW6 30.27R WCI 25 Linden N/A N/A N/A N/A NW12G22 30.28R Sussex CLEAR 28 12 51 VRB5 30.26R WCI 23 Andover N/A 28 12 51 N8 30.27R WCI 20 Trenton CLEAR 32 19 58 NW5 30.29R WCI 27 Millville CLEAR 32 19 58 W13 30.35R WCI 22 Atlantic City CLEAR 33 16 49 W12G20 30.32R WCI 24 Wrightstown CLEAR 32 19 60 NW6 30.27R WCI 26 Toms River CLEAR 32 21 64 W8 30.30R WCI 25 Belmar CLEAR 31 22 69 W10 30.28R WCI 22 $$ PAZ047>061-062-071-100200- EASTERN PENNSYLVANIA CITY SKY/WX TMP DP RH WIND PRES REMARKS Philadelphia PTCLDY 33 17 51 W12 30.34R WCI 24 Allentown PTCLDY 30 20 66 W8 30.28R WCI 22 Scranton PTCLDY 25 16 68 NW3 30.26R $$ CTZ002-004>006-009-010-012-RIZ004-006-007-MAZ004-011-015-100200- SOUTHERN NEW ENGLAND IN CT CITY SKY/WX TMP DP RH WIND PRES REMARKS Bradley INTL MOCLDY 27 9 46 NW10 30.19R WCI 17 Hartford CLEAR 28 10 46 NW6G17 30.21R WCI 22 Danbury PTCLDY 28 10 46 NW9 30.22R WCI 19 Wtrbury/Oxford PTCLDY 27 9 46 N12G18 30.19R WCI 16 Bridgeport CLEAR 32 12 43 NW13G21 30.23R WCI 22 Meriden CLEAR 30 12 47 NW8 30.21R WCI 22 New Haven PTCLDY 30 11 45 NW10 30.22R WCI 21 Chester N/A 28 12 50 NW9G16 30.18R WCI 20 Groton CLEAR 32 11 41 NW15 30.20R WCI 22 Wilimantic CLEAR 28 9 44 NW7G18 30.19R WCI 21 IN RI CITY SKY/WX TMP DP RH WIND PRES REMARKS Providence CLEAR 28 9 44 W8G20 30.17R WCI 20 Block Island PTCLDY 30 16 56 NW18G26 30.18R WCI 18 Westerly CLEAR 30 9 41 NW8G22 30.19R WCI 22 IN MA CITY SKY/WX TMP DP RH WIND PRES REMARKS Boston PTCLDY 29 8 41 NW14G24 30.14R WCI 18 Worcester CLEAR 23 7 50 NW22G31 30.08R WCI 8 Westfield PTCLDY 27 9 46 NW15G21 30.18R WCI 15 Provincetown CLOUDY 32 16 51 NW17G31 30.12R WCI 21 Nantucket PTCLDY 33 13 43 NW18G25 30.11R WCI 22 $$ ANZ330-335-338-340-345-350-353-355-100200- COASTAL MARINE OBSERVATIONS STATION/POSITION TIME SKY/WX TEMP WIND PRES VSBY WAVE AIR SEA DIR/SP/G HT/PER (UTC) (F) (DEG/KT/KT) (MB) (MI) (FT/S) NY HARB ENTRANCE 2350 39 51 300/ 29/ 39 1022.8 5/ 5 20 S FIRE ISLAND 0050 37 52 320/ 25/ 29 1023.2 7/ 6 GREAT SOUTH BAY 0030 34 41 N/A 23 SSW MONTAUK P 2350 38 54 290/ 25/ 31 1020.8 6/ 6 15 E BARNEGAT LI 0030 51 N/A 5/ 4 HUDSON CANYON 2350 42 56 1021.9 9/ 7 KINGS POINT 0030 34 45 1024.5 EXECUTION ROCKS 0045 34 300/ 17/ 29 N/A CENTRAL LI SOUND 0015 35 49 320/ 19/ 25 N/A 4/ 5 EASTERN LI SOUND NOT AVBL ROBBINS REEF 0030 33 320/ 24/ 30 1024.7 $$ >>>>>>>>>>>>>>>>>>>>>>>>>>>> KEY <<<<<<<<<<<<<<<<<<<<<<<<<<< > < > SKY/WX - Sky Condition/Present Weather < > TMP - Temperature in Fahrenheit < > DP - Dew Point in Fahrenheit < > RH - Relative Humidity in Percent < > WIND - Direction (from) and Speed in MPH < > PRES - Mean Sea Level Pressure (inches of Hg) < > WCI - Wind Chill Index < > VSB - VISIBILITY IN MILES < > HX - HEAT INDEX < > TC - TEMPERATURE IN CELSIUS < > VRB - VARIABLE WIND DIRECTION < > < >>>>>>>>>>>>>>>>>>>>>>>>>>>> KEY <<<<<<<<<<<<<<<<<<<<<<<<<<<

USA.gov is the U.S. government's official web portal to all federal, state and local government web resources and services.